Location: *
(37.4917°N, 71.5558°E)
Time: 02:31:52
(UTC+00:00)

IRIDIUM 106 - Pass Details

Date: 09 April 2020
Orbit: 776 x 779 km, 86.4° (Epoch: 31 May)

Event Time Altitude Azimuth Distance (km) Brightness Sun altitude
Rises 14:15:58 0° 1° (N) 3,269 7.8 -7.0°
Reaches altitude 10° 14:18:21 10° 5° (N) 2,337 7.0 -7.5°
Maximum altitude 14:23:32 61° 86° (E) 878 4.4 -8.5°
Drops below altitude 10° 14:28:40 10° 167° (SSE) 2,320 6.5 -9.4°
Sets 14:31:02 0° 170° (S) 3,242 7.3 -9.9°
